Time,TemperatureF,DewpointF,PressureIn,WindDirection,WindDirectionDegrees,WindSpeedMPH,WindSpeedGustMPH,Humidity,HourlyPrecipIn,Conditions,Clouds,dailyrainin,SoftwareType,DateUTC
2013-03-04 00:00:00,18.4,1.5,29.92,ENE,66,5.0,10.0,47,0.00,,---,0.00,VWS V14.01,2013-03-04 06:00:00,
2013-03-04 00:05:00,18.1,1.7,29.92,ENE,57,4.0,9.0,48,0.00,,---,0.00,VWS V14.01,2013-03-04 06:05:00,
2013-03-04 00:10:00,18.0,2.1,29.92,East,80,5.0,9.0,49,0.00,,---,0.00,VWS V14.01,2013-03-04 06:10:00,
2013-03-04 00:15:00,18.0,2.1,29.92,ENE,62,5.0,9.0,49,0.00,,---,0.00,VWS V14.01,2013-03-04 06:15:00,
2013-03-04 00:20:00,17.8,2.3,29.93,ENE,65,4.0,9.0,50,0.00,,---,0.00,VWS V14.01,2013-03-04 06:20:00,
2013-03-04 00:25:00,17.7,2.7,29.93,ENE,65,4.0,9.0,51,0.00,,---,0.00,VWS V14.01,2013-03-04 06:25:00,
2013-03-04 00:30:00,17.7,2.7,29.94,East,91,2.0,9.0,51,0.00,,---,0.00,VWS V14.01,2013-03-04 06:30:00,
2013-03-04 00:35:00,17.7,3.1,29.94,East,93,3.0,7.0,52,0.00,,---,0.00,VWS V14.01,2013-03-04 06:35:00,
2013-03-04 00:40:00,17.6,2.6,29.94,ENE,78,2.0,7.0,51,0.00,,---,0.00,VWS V14.01,2013-03-04 06:40:00,
2013-03-04 00:45:00,17.5,2.9,29.94,East,87,1.0,7.0,52,0.00,,---,0.00,VWS V14.01,2013-03-04 06:45:00,
2013-03-04 00:50:00,17.3,2.7,29.94,East,93,1.0,7.0,52,0.00,,---,0.00,VWS V14.01,2013-03-04 06:50:00,
2013-03-04 00:55:00,17.2,3.0,29.94,East,94,1.0,7.0,53,0.00,,---,0.00,VWS V14.01,2013-03-04 06:55:00,
2013-03-04 01:00:00,17.1,3.3,29.94,ENE,77,2.0,7.0,54,0.00,,---,0.00,VWS V14.01,2013-03-04 07:00:00,
2013-03-04 01:05:00,17.1,3.3,29.94,NE,54,5.0,5.0,54,0.00,,---,0.00,VWS V14.01,2013-03-04 07:05:00,
2013-03-04 01:10:00,17.0,3.6,29.94,East,80,3.0,5.0,55,0.00,,---,0.00,VWS V14.01,2013-03-04 07:10:00,
2013-03-04 01:15:00,16.9,3.9,29.94,East,99,4.0,5.0,56,0.00,,---,0.00,VWS V14.01,2013-03-04 07:15:00,
2013-03-04 01:20:00,16.8,4.2,29.94,ENE,76,2.0,6.0,57,0.00,,---,0.00,VWS V14.01,2013-03-04 07:20:00,
2013-03-04 01:25:00,16.8,4.6,29.94,ENE,78,3.0,6.0,58,0.00,,---,0.00,VWS V14.01,2013-03-04 07:25:00,
2013-03-04 01:30:00,16.9,4.7,29.94,ENE,75,0.0,6.0,58,0.00,,---,0.00,VWS V14.01,2013-03-04 07:30:00,
2013-03-04 01:35:00,16.9,5.1,29.94,ENE,78,0.0,6.0,59,0.00,,---,0.00,VWS V14.01,2013-03-04 07:35:00,
2013-03-04 01:40:00,16.8,5.0,29.94,East,90,5.0,6.0,59,0.00,,---,0.00,VWS V14.01,2013-03-04 07:40:00,
2013-03-04 01:45:00,16.6,4.8,29.94,ENE,64,0.0,6.0,59,0.00,,---,0.00,VWS V14.01,2013-03-04 07:45:00,
2013-03-04 01:50:00,16.3,4.9,29.94,East,81,5.0,7.0,60,0.00,,---,0.00,VWS V14.01,2013-03-04 07:50:00,
2013-03-04 01:55:00,16.0,4.9,29.94,ENE,75,7.0,7.0,61,0.00,,---,0.00,VWS V14.01,2013-03-04 07:55:00,
2013-03-04 02:00:00,15.8,5.1,29.94,ENE,72,4.0,7.0,62,0.00,,---,0.00,VWS V14.01,2013-03-04 08:00:00,
2013-03-04 02:05:00,15.7,5.4,29.94,ENE,63,4.0,7.0,63,0.00,,---,0.00,VWS V14.01,2013-03-04 08:05:00,
2013-03-04 02:10:00,15.6,5.3,29.94,ENE,69,3.0,7.0,63,0.00,,---,0.00,VWS V14.01,2013-03-04 08:10:00,
2013-03-04 02:15:00,15.5,5.5,29.94,ENE,76,2.0,7.0,64,0.00,,---,0.00,VWS V14.01,2013-03-04 08:15:00,
2013-03-04 02:20:00,15.5,5.5,29.94,ENE,67,4.0,7.0,64,0.00,,---,0.00,VWS V14.01,2013-03-04 08:20:00,
2013-03-04 02:25:00,15.4,5.8,29.94,ENE,71,6.0,7.0,65,0.00,,---,0.00,VWS V14.01,2013-03-04 08:25:00,
2013-03-04 02:30:00,15.2,5.6,29.94,ENE,66,8.0,10.0,65,0.00,,---,0.00,VWS V14.01,2013-03-04 08:30:00,
2013-03-04 02:35:00,15.0,5.4,29.94,ENE,65,10.0,11.0,65,0.00,,---,0.00,VWS V14.01,2013-03-04 08:35:00,
2013-03-04 02:40:00,15.0,5.7,29.94,ENE,71,9.0,11.0,66,0.00,,---,0.00,VWS V14.01,2013-03-04 08:40:00,
2013-03-04 02:45:00,15.0,6.0,29.94,ENE,61,6.0,11.0,67,0.00,,---,0.00,VWS V14.01,2013-03-04 08:45:00,
2013-03-04 02:50:00,15.0,6.0,29.94,ENE,62,7.0,11.0,67,0.00,,---,0.00,VWS V14.01,2013-03-04 08:50:00,
2013-03-04 02:55:00,15.0,6.0,29.94,ENE,61,6.0,11.0,67,0.00,,---,0.00,VWS V14.01,2013-03-04 08:55:00,
2013-03-04 03:00:00,15.0,6.4,29.94,ENE,73,4.0,8.0,68,0.00,,---,0.00,VWS V14.01,2013-03-04 09:00:00,
2013-03-04 03:05:00,15.1,6.5,29.94,ENE,73,6.0,9.0,68,0.00,,---,0.00,VWS V14.01,2013-03-04 09:05:00,
2013-03-04 03:10:00,15.0,6.4,29.94,NE,50,6.0,10.0,68,0.00,,---,0.00,VWS V14.01,2013-03-04 09:10:00,
2013-03-04 03:15:00,15.0,6.7,29.93,ENE,71,7.0,10.0,69,0.00,,---,0.00,VWS V14.01,2013-03-04 09:15:00,
2013-03-04 03:20:00,15.0,6.7,29.94,ENE,73,6.0,10.0,69,0.00,,---,0.00,VWS V14.01,2013-03-04 09:20:00,
2013-03-04 03:25:00,14.8,6.5,29.94,ENE,66,6.0,11.0,69,0.00,,---,0.00,VWS V14.01,2013-03-04 09:25:00,
2013-03-04 03:30:00,14.8,6.5,29.93,NE,53,7.0,7.0,69,0.00,,---,0.00,VWS V14.01,2013-03-04 09:30:00,
2013-03-04 03:35:00,14.7,6.4,29.93,NE,56,5.0,8.0,69,0.00,,---,0.00,VWS V14.01,2013-03-04 09:35:00,
2013-03-04 03:40:00,14.5,6.5,29.94,ENE,73,6.0,9.0,70,0.00,,---,0.00,VWS V14.01,2013-03-04 09:40:00,
2013-03-04 03:45:00,14.5,6.5,29.93,ENE,63,7.0,10.0,70,0.00,,---,0.00,VWS V14.01,2013-03-04 09:45:00,
2013-03-04 03:50:00,14.7,6.7,29.93,ENE,65,7.0,10.0,70,0.00,,---,0.00,VWS V14.01,2013-03-04 09:50:00,
2013-03-04 03:55:00,14.9,6.9,29.93,ENE,61,6.0,10.0,70,0.00,,---,0.00,VWS V14.01,2013-03-04 09:55:00,
2013-03-04 04:00:00,14.9,6.9,29.94,ENE,65,4.0,5.0,70,0.00,,---,0.00,VWS V14.01,2013-03-04 10:00:00,
2013-03-04 04:05:00,14.9,6.9,29.93,ENE,67,7.0,9.0,70,0.00,,---,0.00,VWS V14.01,2013-03-04 10:05:00,
2013-03-04 04:10:00,15.1,7.1,29.93,East,82,4.0,10.0,70,0.00,,---,0.00,VWS V14.01,2013-03-04 10:10:00,
2013-03-04 04:15:00,15.2,7.2,29.93,NE,52,6.0,11.0,70,0.00,,---,0.00,VWS V14.01,2013-03-04 10:15:00,
2013-03-04 04:20:00,15.1,7.1,29.93,ENE,59,7.0,11.0,70,0.00,,---,0.00,VWS V14.01,2013-03-04 10:20:00,
2013-03-04 04:25:00,15.0,7.0,29.93,ENE,58,7.0,11.0,70,0.00,,---,0.00,VWS V14.01,2013-03-04 10:25:00,
2013-03-04 04:30:00,15.0,7.0,29.93,East,80,4.0,7.0,70,0.00,,---,0.00,VWS V14.01,2013-03-04 10:30:00,
2013-03-04 04:35:00,15.0,7.0,29.93,ENE,61,4.0,9.0,70,0.00,,---,0.00,VWS V14.01,2013-03-04 10:35:00,
2013-03-04 04:40:00,15.2,6.9,29.93,ENE,65,7.0,9.0,69,0.00,,---,0.00,VWS V14.01,2013-03-04 10:40:00,
2013-03-04 04:45:00,15.3,7.0,29.93,ENE,78,5.0,9.0,69,0.00,,---,0.00,VWS V14.01,2013-03-04 10:45:00,
2013-03-04 04:50:00,15.4,7.1,29.93,ENE,71,4.0,9.0,69,0.00,,---,0.00,VWS V14.01,2013-03-04 10:50:00,
2013-03-04 04:55:00,15.4,7.1,29.93,ENE,61,6.0,9.0,69,0.00,,---,0.00,VWS V14.01,2013-03-04 10:55:00,
2013-03-04 05:00:00,15.4,7.1,29.93,ENE,68,5.0,7.0,69,0.00,,---,0.00,VWS V14.01,2013-03-04 11:00:00,
2013-03-04 05:05:00,15.5,7.2,29.93,ENE,65,6.0,8.0,69,0.00,,---,0.00,VWS V14.01,2013-03-04 11:05:00,
2013-03-04 05:10:00,15.5,7.2,29.93,NE,55,4.0,8.0,69,0.00,,---,0.00,VWS V14.01,2013-03-04 11:10:00,
2013-03-04 05:15:00,15.4,7.1,29.93,ENE,67,5.0,8.0,69,0.00,,---,0.00,VWS V14.01,2013-03-04 11:15:00,
2013-03-04 05:20:00,15.4,7.1,29.93,ENE,69,5.0,8.0,69,0.00,,---,0.00,VWS V14.01,2013-03-04 11:20:00,
2013-03-04 05:25:00,15.4,7.1,29.93,ENE,64,5.0,9.0,69,0.00,,---,0.00,VWS V14.01,2013-03-04 11:25:00,
2013-03-04 05:30:00,15.5,6.8,29.93,ENE,67,6.0,7.0,68,0.00,,---,0.00,VWS V14.01,2013-03-04 11:30:00,
2013-03-04 05:35:00,15.7,7.0,29.93,ENE,61,5.0,10.0,68,0.00,,---,0.00,VWS V14.01,2013-03-04 11:35:00,
2013-03-04 05:40:00,15.8,7.1,29.93,ENE,66,3.0,10.0,68,0.00,,---,0.00,VWS V14.01,2013-03-04 11:40:00,
2013-03-04 05:45:00,15.9,6.9,29.93,ENE,61,4.0,10.0,67,0.00,,---,0.00,VWS V14.01,2013-03-04 11:45:00,
2013-03-04 05:50:00,16.0,6.7,29.93,ENE,69,5.0,10.0,66,0.00,,---,0.00,VWS V14.01,2013-03-04 11:50:00,
2013-03-04 05:55:00,16.0,6.7,29.93,ENE,63,4.0,10.0,66,0.00,,---,0.00,VWS V14.01,2013-03-04 11:55:00,
2013-03-04 06:02:00,16.0,6.3,29.93,ENE,71,4.0,4.0,65,0.00,,---,0.00,VWS V14.01,2013-03-04 12:02:00,
2013-03-04 06:07:00,16.0,6.3,29.93,ENE,65,6.0,8.0,65,0.00,,---,0.00,VWS V14.01,2013-03-04 12:07:00,
2013-03-04 06:12:00,16.0,6.0,29.93,ENE,67,7.0,9.0,64,0.00,,---,0.00,VWS V14.01,2013-03-04 12:12:00,
2013-03-04 06:17:00,16.0,6.0,29.93,ENE,61,5.0,10.0,64,0.00,,---,0.00,VWS V14.01,2013-03-04 12:17:00,
2013-03-04 06:22:00,16.0,5.6,29.93,ENE,63,9.0,10.0,63,0.00,,---,0.00,VWS V14.01,2013-03-04 12:22:00,
2013-03-04 06:27:00,16.0,5.6,29.93,ENE,65,4.0,11.0,63,0.00,,---,0.00,VWS V14.01,2013-03-04 12:27:00,
2013-03-04 06:32:00,16.0,6.0,29.93,East,81,10.0,10.0,64,0.00,,---,0.00,VWS V14.01,2013-03-04 12:32:00,
2013-03-04 06:37:00,16.1,5.7,29.93,ENE,69,3.0,10.0,63,0.00,,---,0.00,VWS V14.01,2013-03-04 12:37:00,
2013-03-04 06:42:00,16.2,5.8,29.93,East,80,3.0,10.0,63,0.00,,---,0.00,VWS V14.01,2013-03-04 12:42:00,
2013-03-04 06:47:00,16.3,5.9,29.93,ENE,57,4.0,10.0,63,0.00,,---,0.00,VWS V14.01,2013-03-04 12:47:00,
2013-03-04 06:52:00,16.3,5.9,29.93,ENE,67,4.0,10.0,63,0.00,,---,0.00,VWS V14.01,2013-03-04 12:52:00,
2013-03-04 06:57:00,16.3,5.9,29.93,ENE,61,5.0,11.0,63,0.00,,---,0.00,VWS V14.01,2013-03-04 12:57:00,
2013-03-04 07:02:00,16.3,5.9,29.94,ENE,62,6.0,9.0,63,0.00,,---,0.00,VWS V14.01,2013-03-04 13:02:00,
2013-03-04 07:07:00,16.3,5.9,29.94,ENE,66,5.0,11.0,63,0.00,,---,0.00,VWS V14.01,2013-03-04 13:07:00,
2013-03-04 07:12:00,16.2,5.8,29.93,ENE,76,5.0,11.0,63,0.00,,---,0.00,VWS V14.01,2013-03-04 13:12:00,
2013-03-04 07:17:00,16.1,6.1,29.93,ENE,61,6.0,12.0,64,0.00,,---,0.00,VWS V14.01,2013-03-04 13:17:00,
2013-03-04 07:22:00,16.1,6.1,29.93,NE,54,7.0,13.0,64,0.00,,---,0.00,VWS V14.01,2013-03-04 13:22:00,
2013-03-04 07:27:00,16.1,6.1,29.93,ENE,73,12.0,13.0,64,0.00,,---,0.00,VWS V14.01,2013-03-04 13:27:00,
2013-03-04 07:32:00,16.2,6.2,29.94,ENE,67,7.0,12.0,64,0.00,,---,0.00,VWS V14.01,2013-03-04 13:32:00,
2013-03-04 07:37:00,16.2,6.2,29.94,ENE,65,9.0,12.0,64,0.00,,---,0.00,VWS V14.01,2013-03-04 13:37:00,
2013-03-04 07:42:00,16.3,6.3,29.94,ENE,64,8.0,13.0,64,0.00,,---,0.00,VWS V14.01,2013-03-04 13:42:00,
2013-03-04 07:47:00,16.3,6.3,29.93,ENE,71,11.0,13.0,64,0.00,,---,0.00,VWS V14.01,2013-03-04 13:47:00,
2013-03-04 07:52:00,16.3,6.3,29.94,ENE,67,8.0,13.0,64,0.00,,---,0.00,VWS V14.01,2013-03-04 13:52:00,
2013-03-04 07:57:00,16.4,6.7,29.94,ENE,68,9.0,13.0,65,0.00,,---,0.00,VWS V14.01,2013-03-04 13:57:00,
2013-03-04 08:02:00,16.6,6.6,29.94,ENE,61,5.0,12.0,64,0.00,,---,0.00,VWS V14.01,2013-03-04 14:02:00,
2013-03-04 08:07:00,16.7,7.0,29.94,ENE,61,4.0,12.0,65,0.00,,---,0.00,VWS V14.01,2013-03-04 14:07:00,
2013-03-04 08:12:00,16.7,6.7,29.94,ENE,71,10.0,12.0,64,0.00,,---,0.00,VWS V14.01,2013-03-04 14:12:00,
2013-03-04 08:17:00,16.8,6.8,29.94,East,80,3.0,12.0,64,0.00,,---,0.00,VWS V14.01,2013-03-04 14:17:00,
2013-03-04 08:22:00,16.9,6.8,29.94,NE,49,5.0,12.0,64,0.00,,---,0.00,VWS V14.01,2013-03-04 14:22:00,
2013-03-04 08:27:00,16.9,7.2,29.94,ENE,58,9.0,14.0,65,0.00,,---,0.00,VWS V14.01,2013-03-04 14:27:00,
2013-03-04 08:32:00,17.0,7.3,29.94,ENE,61,6.0,10.0,65,0.00,,---,0.00,VWS V14.01,2013-03-04 14:32:00,
2013-03-04 08:37:00,17.2,7.8,29.93,NE,47,7.0,10.0,66,0.00,,---,0.00,VWS V14.01,2013-03-04 14:37:00,
2013-03-04 08:42:00,17.4,8.0,29.94,NE,56,4.0,12.0,66,0.00,,---,0.00,VWS V14.01,2013-03-04 14:42:00,
2013-03-04 08:47:00,17.6,8.2,29.94,ENE,61,7.0,12.0,66,0.00,,---,0.00,VWS V14.01,2013-03-04 14:47:00,
2013-03-04 08:52:00,17.8,8.4,29.94,ENE,61,5.0,12.0,66,0.00,,---,0.00,VWS V14.01,2013-03-04 14:52:00,
2013-03-04 08:57:00,18.1,8.7,29.94,East,81,3.0,12.0,66,0.00,,---,0.00,VWS V14.01,2013-03-04 14:57:00,
2013-03-04 09:02:00,18.4,9.0,29.94,ENE,71,6.0,11.0,66,0.00,,---,0.00,VWS V14.01,2013-03-04 15:02:00,
2013-03-04 09:07:00,18.6,8.8,29.93,ENE,76,3.0,13.0,65,0.00,,---,0.00,VWS V14.01,2013-03-04 15:07:00,
2013-03-04 09:12:00,18.7,8.9,29.93,ESE,116,10.0,13.0,65,0.00,,---,0.00,VWS V14.01,2013-03-04 15:12:00,
2013-03-04 09:17:00,18.9,9.1,29.93,East,80,7.0,13.0,65,0.00,,---,0.00,VWS V14.01,2013-03-04 15:17:00,
2013-03-04 09:22:00,18.9,9.4,29.93,ENE,61,15.0,18.0,66,0.00,,---,0.00,VWS V14.01,2013-03-04 15:22:00,
2013-03-04 09:27:00,18.8,9.7,29.93,East,92,6.0,18.0,67,0.00,,---,0.00,VWS V14.01,2013-03-04 15:27:00,
2013-03-04 09:32:00,18.8,9.3,29.93,ENE,73,6.0,12.0,66,0.00,,---,0.00,VWS V14.01,2013-03-04 15:32:00,
2013-03-04 09:37:00,18.8,9.7,29.93,ENE,67,13.0,15.0,67,0.00,,---,0.00,VWS V14.01,2013-03-04 15:37:00,
2013-03-04 09:42:00,18.9,9.8,29.93,ESE,121,10.0,15.0,67,0.00,,---,0.00,VWS V14.01,2013-03-04 15:42:00,
2013-03-04 09:47:00,18.9,9.8,29.93,ENE,77,4.0,15.0,67,0.00,,---,0.00,VWS V14.01,2013-03-04 15:47:00,
2013-03-04 09:52:00,19.1,10.3,29.93,East,86,5.0,15.0,68,0.00,,---,0.00,VWS V14.01,2013-03-04 15:52:00,
2013-03-04 09:57:00,19.2,10.4,29.93,NE,49,7.0,15.0,68,0.00,,---,0.00,VWS V14.01,2013-03-04 15:57:00,
2013-03-04 10:02:00,19.2,10.4,29.93,ENE,63,4.0,10.0,68,0.00,,---,0.00,VWS V14.01,2013-03-04 16:02:00,
2013-03-04 10:07:00,19.4,10.6,29.92,ENE,78,5.0,11.0,68,0.00,,---,0.00,VWS V14.01,2013-03-04 16:07:00,
2013-03-04 10:12:00,19.6,10.8,29.92,ENE,71,12.0,12.0,68,0.00,,---,0.00,VWS V14.01,2013-03-04 16:12:00,
2013-03-04 10:17:00,19.6,10.8,29.92,ESE,103,10.0,14.0,68,0.00,,---,0.00,VWS V14.01,2013-03-04 16:17:00,
2013-03-04 10:22:00,19.7,10.9,29.92,ENE,58,4.0,14.0,68,0.00,,---,0.00,VWS V14.01,2013-03-04 16:22:00,
2013-03-04 10:27:00,19.9,11.1,29.93,ENE,67,4.0,14.0,68,0.00,,---,0.00,VWS V14.01,2013-03-04 16:27:00,
2013-03-04 10:32:00,20.2,11.0,29.93,East,87,3.0,7.0,67,0.00,,---,0.00,VWS V14.01,2013-03-04 16:32:00,
2013-03-04 10:37:00,20.4,11.2,29.93,ENE,71,5.0,10.0,67,0.00,,---,0.00,VWS V14.01,2013-03-04 16:37:00,
2013-03-04 10:42:00,20.5,11.3,29.93,ENE,69,3.0,10.0,67,0.00,,---,0.00,VWS V14.01,2013-03-04 16:42:00,
2013-03-04 10:47:00,20.8,11.6,29.93,NE,53,6.0,10.0,67,0.00,,---,0.00,VWS V14.01,2013-03-04 16:47:00,
2013-03-04 10:52:00,20.9,11.3,29.93,ENE,65,6.0,11.0,66,0.00,,---,0.00,VWS V14.01,2013-03-04 16:52:00,
2013-03-04 10:57:00,21.0,11.8,29.93,ENE,65,4.0,11.0,67,0.00,,---,0.00,VWS V14.01,2013-03-04 16:57:00,
2013-03-04 11:02:00,21.2,12.0,29.93,ENE,61,3.0,7.0,67,0.00,,---,0.00,VWS V14.01,2013-03-04 17:02:00,
2013-03-04 11:07:00,21.6,12.0,29.93,ENE,74,9.0,9.0,66,0.00,,---,0.00,VWS V14.01,2013-03-04 17:07:00,
2013-03-04 11:12:00,22.0,12.7,29.93,ENE,57,6.0,9.0,67,0.00,,---,0.00,VWS V14.01,2013-03-04 17:12:00,
2013-03-04 11:17:00,22.1,12.5,29.93,ENE,67,9.0,9.0,66,0.00,,---,0.00,VWS V14.01,2013-03-04 17:17:00,
2013-03-04 11:22:00,22.1,12.5,29.93,ENE,57,6.0,10.0,66,0.00,,---,0.00,VWS V14.01,2013-03-04 17:22:00,
2013-03-04 11:27:00,22.4,12.8,29.93,ENE,65,3.0,10.0,66,0.00,,---,0.00,VWS V14.01,2013-03-04 17:27:00,
2013-03-04 11:32:00,22.6,12.3,29.93,SE,142,7.0,7.0,64,0.00,,---,0.00,VWS V14.01,2013-03-04 17:32:00,
2013-03-04 11:37:00,22.5,12.2,29.93,ESE,106,5.0,12.0,64,0.00,,---,0.00,VWS V14.01,2013-03-04 17:37:00,
2013-03-04 11:42:00,22.6,12.6,29.93,ENE,62,10.0,12.0,65,0.00,,---,0.00,VWS V14.01,2013-03-04 17:42:00,
2013-03-04 11:47:00,22.9,12.9,29.93,ENE,64,6.0,12.0,65,0.00,,---,0.00,VWS V14.01,2013-03-04 17:47:00,
2013-03-04 11:52:00,23.1,12.4,29.93,ENE,74,8.0,12.0,63,0.00,,---,0.00,VWS V14.01,2013-03-04 17:52:00,
2013-03-04 11:57:00,23.1,12.0,29.93,ENE,70,6.0,13.0,62,0.00,,---,0.00,VWS V14.01,2013-03-04 17:57:00,
2013-03-04 12:02:00,23.4,11.9,29.93,East,80,9.0,9.0,61,0.00,,---,0.00,VWS V14.01,2013-03-04 18:02:00,
2013-03-04 12:07:00,23.6,12.1,29.93,East,93,9.0,11.0,61,0.00,,---,0.00,VWS V14.01,2013-03-04 18:07:00,
2013-03-04 12:12:00,23.7,12.2,29.93,East,95,5.0,11.0,61,0.00,,---,0.00,VWS V14.01,2013-03-04 18:12:00,
2013-03-04 12:17:00,23.9,12.4,29.92,East,83,7.0,11.0,61,0.00,,---,0.00,VWS V14.01,2013-03-04 18:17:00,
2013-03-04 12:22:00,24.0,11.8,29.92,ENE,70,5.0,12.0,59,0.00,,---,0.00,VWS V14.01,2013-03-04 18:22:00,
2013-03-04 12:27:00,24.0,12.1,29.92,NE,55,11.0,12.0,60,0.00,,---,0.00,VWS V14.01,2013-03-04 18:27:00,
2013-03-04 12:29:00,24.1,11.5,29.92,ENE,76,10.0,12.0,58,0.00,,---,0.00,VWS V14.01,2013-03-04 18:29:00,
2013-03-04 12:34:00,24.2,11.9,29.92,ENE,71,7.0,12.0,59,0.00,,---,0.00,VWS V14.01,2013-03-04 18:34:00,
2013-03-04 12:39:00,24.5,11.9,29.92,ENE,64,7.0,13.0,58,0.00,,---,0.00,VWS V14.01,2013-03-04 18:39:00,
2013-03-04 12:45:00,24.6,11.6,29.91,East,96,9.0,13.0,57,0.00,,---,0.00,VWS V14.01,2013-03-04 18:45:00,
2013-03-04 12:50:00,24.8,11.7,29.91,ENE,77,9.0,13.0,57,0.00,,---,0.00,VWS V14.01,2013-03-04 18:50:00,
2013-03-04 12:55:00,24.9,11.8,29.91,East,101,4.0,13.0,57,0.00,,---,0.00,VWS V14.01,2013-03-04 18:55:00,
2013-03-04 13:00:00,24.9,11.8,29.91,ENE,59,4.0,13.0,57,0.00,,---,0.00,VWS V14.01,2013-03-04 19:00:00,
2013-03-04 13:05:00,24.9,11.0,29.91,East,86,4.0,12.0,55,0.00,,---,0.00,VWS V14.01,2013-03-04 19:05:00,
2013-03-04 13:10:00,24.8,11.3,29.90,ENE,74,8.0,12.0,56,0.00,,---,0.00,VWS V14.01,2013-03-04 19:10:00,
2013-03-04 13:15:00,24.9,11.8,29.90,ENE,76,9.0,12.0,57,0.00,,---,0.00,VWS V14.01,2013-03-04 19:15:00,
2013-03-04 13:20:00,25.2,11.7,29.90,ENE,70,3.0,12.0,56,0.00,,---,0.00,VWS V14.01,2013-03-04 19:20:00,
2013-03-04 13:25:00,25.5,12.4,29.90,ENE,67,5.0,12.0,57,0.00,,---,0.00,VWS V14.01,2013-03-04 19:25:00,
2013-03-04 13:30:00,25.6,12.1,29.89,NE,54,10.0,12.0,56,0.00,,---,0.00,VWS V14.01,2013-03-04 19:30:00,
2013-03-04 13:35:00,25.7,12.2,29.89,ENE,60,7.0,11.0,56,0.00,,---,0.00,VWS V14.01,2013-03-04 19:35:00,
2013-03-04 13:40:00,25.8,12.3,29.89,ENE,66,5.0,11.0,56,0.00,,---,0.00,VWS V14.01,2013-03-04 19:40:00,
2013-03-04 13:45:00,26.1,13.0,29.89,NE,40,5.0,11.0,57,0.00,,---,0.00,VWS V14.01,2013-03-04 19:45:00,
2013-03-04 13:50:00,26.2,13.1,29.89,ENE,71,5.0,11.0,57,0.00,,---,0.00,VWS V14.01,2013-03-04 19:50:00,
2013-03-04 13:55:00,26.2,13.8,29.89,ENE,74,4.0,13.0,59,0.00,,---,0.00,VWS V14.01,2013-03-04 19:55:00,
2013-03-04 14:00:00,26.2,13.4,29.88,NE,56,4.0,13.0,58,0.00,,---,0.00,VWS V14.01,2013-03-04 20:00:00,
2013-03-04 14:05:00,26.3,13.9,29.88,ENE,74,6.0,9.0,59,0.00,,---,0.00,VWS V14.01,2013-03-04 20:05:00,
2013-03-04 14:10:00,26.4,14.8,29.88,NE,46,5.0,12.0,61,0.00,,---,0.00,VWS V14.01,2013-03-04 20:10:00,
2013-03-04 14:15:00,26.5,15.3,29.88,ENE,60,3.0,12.0,62,0.00,,---,0.00,VWS V14.01,2013-03-04 20:15:00,
2013-03-04 14:20:00,26.7,15.8,29.88,ENE,66,4.0,12.0,63,0.00,,---,0.00,VWS V14.01,2013-03-04 20:20:00,
2013-03-04 14:25:00,26.5,15.6,29.88,ENE,64,5.0,15.0,63,0.00,,---,0.00,VWS V14.01,2013-03-04 20:25:00,
2013-03-04 14:30:00,26.6,15.4,29.88,East,98,9.0,15.0,62,0.00,,---,0.00,VWS V14.01,2013-03-04 20:30:00,
2013-03-04 14:35:00,26.7,15.4,29.88,East,88,6.0,12.0,62,0.00,,---,0.00,VWS V14.01,2013-03-04 20:35:00,
2013-03-04 14:40:00,26.9,15.3,29.88,East,97,4.0,12.0,61,0.00,,---,0.00,VWS V14.01,2013-03-04 20:40:00,
2013-03-04 14:45:00,27.0,15.7,29.88,East,89,3.0,13.0,62,0.00,,---,0.00,VWS V14.01,2013-03-04 20:45:00,
2013-03-04 14:50:00,27.2,15.6,29.88,East,96,1.0,13.0,61,0.00,,---,0.00,VWS V14.01,2013-03-04 20:50:00,
2013-03-04 14:55:00,27.4,15.7,29.88,ESE,109,3.0,13.0,61,0.00,,---,0.00,VWS V14.01,2013-03-04 20:55:00,
2013-03-04 15:00:00,27.6,16.3,29.88,ENE,57,4.0,13.0,62,0.00,,---,0.00,VWS V14.01,2013-03-04 21:00:00,
2013-03-04 15:05:00,27.7,16.4,29.88,NE,45,10.0,11.0,62,0.00,,---,0.00,VWS V14.01,2013-03-04 21:05:00,
2013-03-04 15:10:00,27.8,17.2,29.88,NE,36,6.0,11.0,64,0.00,,---,0.00,VWS V14.01,2013-03-04 21:10:00,
2013-03-04 15:15:00,27.9,15.4,29.88,East,84,4.0,15.0,59,0.00,,---,0.00,VWS V14.01,2013-03-04 21:15:00,
2013-03-04 15:20:00,28.2,16.1,29.88,East,86,4.0,15.0,60,0.00,,---,0.00,VWS V14.01,2013-03-04 21:20:00,
2013-03-04 15:25:00,28.4,15.9,29.88,ENE,60,8.0,15.0,59,0.00,,---,0.00,VWS V14.01,2013-03-04 21:25:00,
2013-03-04 15:30:00,28.3,16.6,29.88,ENE,65,9.0,15.0,61,0.00,,---,0.00,VWS V14.01,2013-03-04 21:30:00,
2013-03-04 15:35:00,28.1,16.8,29.88,ENE,63,8.0,13.0,62,0.00,,---,0.00,VWS V14.01,2013-03-04 21:35:00,
2013-03-04 15:40:00,27.8,16.9,29.88,NE,48,7.0,15.0,63,0.00,,---,0.00,VWS V14.01,2013-03-04 21:40:00,
2013-03-04 15:45:00,27.8,16.9,29.88,NE,38,14.0,16.0,63,0.00,,---,0.00,VWS V14.01,2013-03-04 21:45:00,
2013-03-04 15:50:00,27.8,16.9,29.88,ENE,59,10.0,16.0,63,0.00,,---,0.00,VWS V14.01,2013-03-04 21:50:00,
2013-03-04 15:55:00,27.7,16.8,29.88,ENE,67,13.0,16.0,63,0.00,,---,0.00,VWS V14.01,2013-03-04 21:55:00,
2013-03-04 16:00:00,27.7,16.8,29.88,ENE,71,11.0,17.0,63,0.00,,---,0.00,VWS V14.01,2013-03-04 22:00:00,
2013-03-04 16:05:00,27.7,16.8,29.88,ENE,71,10.0,14.0,63,0.00,,---,0.00,VWS V14.01,2013-03-04 22:05:00,
2013-03-04 16:10:00,27.7,16.8,29.88,ENE,59,8.0,14.0,63,0.00,,---,0.00,VWS V14.01,2013-03-04 22:10:00,
2013-03-04 16:15:00,27.7,16.4,29.88,East,80,15.0,15.0,62,0.00,,---,0.00,VWS V14.01,2013-03-04 22:15:00,
2013-03-04 16:20:00,27.7,16.4,29.88,ENE,64,13.0,17.0,62,0.00,,---,0.00,VWS V14.01,2013-03-04 22:20:00,
2013-03-04 16:25:00,27.7,16.8,29.88,ENE,59,10.0,17.0,63,0.00,,---,0.00,VWS V14.01,2013-03-04 22:25:00,
2013-03-04 16:30:00,27.7,16.4,29.88,NE,42,9.0,17.0,62,0.00,,---,0.00,VWS V14.01,2013-03-04 22:30:00,
2013-03-04 16:35:00,27.7,16.4,29.88,ENE,65,9.0,16.0,62,0.00,,---,0.00,VWS V14.01,2013-03-04 22:35:00,
2013-03-04 16:40:00,27.7,16.0,29.88,ENE,65,12.0,16.0,61,0.00,,---,0.00,VWS V14.01,2013-03-04 22:40:00,
2013-03-04 16:45:00,27.7,16.0,29.88,ENE,65,10.0,16.0,61,0.00,,---,0.00,VWS V14.01,2013-03-04 22:45:00,
2013-03-04 16:50:00,27.6,15.9,29.88,ENE,63,16.0,16.0,61,0.00,,---,0.00,VWS V14.01,2013-03-04 22:50:00,
2013-03-04 16:55:00,27.5,15.4,29.88,ENE,60,10.0,16.0,60,0.00,,---,0.00,VWS V14.01,2013-03-04 22:55:00,
2013-03-04 16:59:00,27.5,15.4,29.88,NE,53,12.0,16.0,60,0.00,,---,0.00,VWS V14.01,2013-03-04 22:59:00,
2013-03-04 17:05:00,27.4,15.0,29.87,ENE,64,12.0,18.0,59,0.00,,---,0.00,VWS V14.01,2013-03-04 23:05:00,
2013-03-04 17:10:00,27.4,14.2,29.87,ENE,74,10.0,18.0,57,0.00,,---,0.00,VWS V14.01,2013-03-04 23:10:00,
2013-03-04 17:15:00,27.4,14.6,29.88,ENE,65,5.0,18.0,58,0.00,,---,0.00,VWS V14.01,2013-03-04 23:15:00,
2013-03-04 17:20:00,27.4,14.2,29.88,ENE,71,4.0,19.0,57,0.00,,---,0.00,VWS V14.01,2013-03-04 23:20:00,
2013-03-04 17:25:00,27.4,14.2,29.88,ENE,73,4.0,19.0,57,0.00,,---,0.00,VWS V14.01,2013-03-04 23:25:00,
2013-03-04 17:30:00,27.3,14.9,29.88,ENE,69,8.0,19.0,59,0.00,,---,0.00,VWS V14.01,2013-03-04 23:30:00,
2013-03-04 17:35:00,27.2,15.2,29.88,NE,55,12.0,13.0,60,0.00,,---,0.00,VWS V14.01,2013-03-04 23:35:00,
2013-03-04 17:40:00,27.2,15.2,29.88,East,87,6.0,16.0,60,0.00,,---,0.00,VWS V14.01,2013-03-04 23:40:00,
2013-03-04 17:45:00,27.2,15.6,29.88,ENE,72,9.0,16.0,61,0.00,,---,0.00,VWS V14.01,2013-03-04 23:45:00,
2013-03-04 17:50:00,27.1,15.1,29.88,ENE,61,12.0,16.0,60,0.00,,---,0.00,VWS V14.01,2013-03-04 23:50:00,
2013-03-04 17:55:00,27.1,15.1,29.88,ENE,63,8.0,16.0,60,0.00,,---,0.00,VWS V14.01,2013-03-04 23:55:00,
2013-03-04 18:00:00,27.1,15.4,29.88,ENE,66,11.0,16.0,61,0.00,,---,0.00,VWS V14.01,2013-03-05 00:00:00,
2013-03-04 18:05:00,27.0,15.4,29.89,ENE,74,10.0,14.0,61,0.00,,---,0.00,VWS V14.01,2013-03-05 00:05:00,
2013-03-04 18:10:00,26.9,15.3,29.89,ENE,63,9.0,14.0,61,0.00,,---,0.00,VWS V14.01,2013-03-05 00:10:00,
2013-03-04 18:15:00,26.9,14.5,29.89,NE,42,10.0,15.0,59,0.00,,---,0.00,VWS V14.01,2013-03-05 00:15:00,
2013-03-04 18:20:00,26.8,14.4,29.89,ENE,72,7.0,15.0,59,0.00,,---,0.00,VWS V14.01,2013-03-05 00:20:00,
2013-03-04 18:25:00,26.7,13.9,29.90,ENE,78,6.0,15.0,58,0.00,,---,0.00,VWS V14.01,2013-03-05 00:25:00,
2013-03-04 18:30:00,26.6,14.2,29.90,ENE,61,6.0,6.0,59,0.00,,---,0.00,VWS V14.01,2013-03-05 00:30:00,
2013-03-04 18:35:00,26.5,14.1,29.90,ENE,63,11.0,14.0,59,0.00,,---,0.00,VWS V14.01,2013-03-05 00:35:00,
2013-03-04 18:40:00,26.5,14.1,29.90,ENE,59,10.0,14.0,59,0.00,,---,0.00,VWS V14.01,2013-03-05 00:40:00,
2013-03-04 18:45:00,26.4,14.0,29.91,NE,53,9.0,14.0,59,0.00,,---,0.00,VWS V14.01,2013-03-05 00:45:00,
2013-03-04 18:50:00,26.3,13.9,29.91,ENE,71,9.0,14.0,59,0.00,,---,0.00,VWS V14.01,2013-03-05 00:50:00,
2013-03-04 18:55:00,26.3,14.3,29.91,ENE,67,5.0,14.0,60,0.00,,---,0.00,VWS V14.01,2013-03-05 00:55:00,
2013-03-04 19:00:00,26.2,14.2,29.91,ENE,76,7.0,7.0,60,0.00,,---,0.00,VWS V14.01,2013-03-05 01:00:00,
2013-03-04 19:05:00,26.2,14.6,29.91,ENE,73,6.0,10.0,61,0.00,,---,0.00,VWS V14.01,2013-03-05 01:05:00,
2013-03-04 19:10:00,26.2,14.2,29.91,East,94,3.0,10.0,60,0.00,,---,0.00,VWS V14.01,2013-03-05 01:10:00,
2013-03-04 19:15:00,26.1,14.5,29.90,East,81,3.0,10.0,61,0.00,,---,0.00,VWS V14.01,2013-03-05 01:15:00,
2013-03-04 19:20:00,26.1,14.5,29.90,ESE,104,4.0,12.0,61,0.00,,---,0.00,VWS V14.01,2013-03-05 01:20:00,
2013-03-04 19:25:00,26.0,15.1,29.90,ENE,65,8.0,12.0,63,0.00,,---,0.00,VWS V14.01,2013-03-05 01:25:00,
2013-03-04 19:30:00,26.0,15.1,29.90,NE,56,5.0,6.0,63,0.00,,---,0.00,VWS V14.01,2013-03-05 01:30:00,
2013-03-04 19:35:00,25.9,15.1,29.90,ENE,76,9.0,11.0,63,0.00,,---,0.00,VWS V14.01,2013-03-05 01:35:00,
2013-03-04 19:40:00,25.9,15.4,29.90,ENE,67,6.0,15.0,64,0.00,,---,0.00,VWS V14.01,2013-03-05 01:40:00,
2013-03-04 19:45:00,25.8,15.7,29.89,NE,48,11.0,15.0,65,0.00,,---,0.00,VWS V14.01,2013-03-05 01:45:00,
2013-03-04 19:50:00,25.8,16.0,29.89,ESE,105,6.0,15.0,66,0.00,,---,0.00,VWS V14.01,2013-03-05 01:50:00,
2013-03-04 19:55:00,25.7,15.9,29.89,NE,55,13.0,17.0,66,0.00,,---,0.00,VWS V14.01,2013-03-05 01:55:00,
2013-03-04 20:00:00,25.7,16.3,29.89,ENE,71,5.0,5.0,67,0.00,,---,0.00,VWS V14.01,2013-03-05 02:00:00,
2013-03-04 20:05:00,25.6,16.2,29.90,ENE,69,3.0,12.0,67,0.00,,---,0.00,VWS V14.01,2013-03-05 02:05:00,
2013-03-04 20:10:00,25.5,16.1,29.90,NE,54,6.0,12.0,67,0.00,,---,0.00,VWS V14.01,2013-03-05 02:10:00,
2013-03-04 20:15:00,25.4,16.0,29.90,ENE,60,6.0,16.0,67,0.00,,---,0.00,VWS V14.01,2013-03-05 02:15:00,
2013-03-04 20:20:00,25.3,16.6,29.90,East,95,2.0,16.0,69,0.00,,---,0.00,VWS V14.01,2013-03-05 02:20:00,
2013-03-04 20:25:00,25.3,16.6,29.90,East,80,4.0,16.0,69,0.00,,---,0.00,VWS V14.01,2013-03-05 02:25:00,
2013-03-04 20:30:00,25.2,16.1,29.90,ENE,78,4.0,6.0,68,0.00,,---,0.00,VWS V14.01,2013-03-05 02:30:00,
2013-03-04 20:35:00,25.2,16.5,29.91,ENE,76,3.0,7.0,69,0.00,,---,0.00,VWS V14.01,2013-03-05 02:35:00,
2013-03-04 20:40:00,25.2,16.5,29.91,East,101,2.0,11.0,69,0.00,,---,0.00,VWS V14.01,2013-03-05 02:40:00,
2013-03-04 20:45:00,25.2,16.5,29.91,East,82,6.0,11.0,69,0.00,,---,0.00,VWS V14.01,2013-03-05 02:45:00,
2013-03-04 20:50:00,25.1,17.0,29.91,East,80,3.0,11.0,71,0.00,,---,0.00,VWS V14.01,2013-03-05 02:50:00,
2013-03-04 20:55:00,25.0,16.9,29.91,NE,50,3.0,15.0,71,0.00,,---,0.00,VWS V14.01,2013-03-05 02:55:00,
2013-03-04 21:00:00,25.0,16.9,29.91,ESE,104,2.0,2.0,71,0.00,,---,0.00,VWS V14.01,2013-03-05 03:00:00,
2013-03-04 21:05:00,24.9,17.2,29.91,East,94,6.0,7.0,72,0.00,,---,0.00,VWS V14.01,2013-03-05 03:05:00,
2013-03-04 21:10:00,24.9,16.8,29.91,ESE,113,7.0,7.0,71,0.00,,---,0.00,VWS V14.01,2013-03-05 03:10:00,
2013-03-04 21:15:00,24.9,16.8,29.91,ENE,76,1.0,14.0,71,0.00,,---,0.00,VWS V14.01,2013-03-05 03:15:00,
2013-03-04 21:20:00,24.8,16.8,29.91,ESE,111,7.0,14.0,71,0.00,,---,0.00,VWS V14.01,2013-03-05 03:20:00,
2013-03-04 21:25:00,24.8,17.1,29.91,East,80,9.0,14.0,72,0.00,,---,0.00,VWS V14.01,2013-03-05 03:25:00,
2013-03-04 21:30:00,24.7,17.0,29.91,East,82,7.0,7.0,72,0.00,,---,0.00,VWS V14.01,2013-03-05 03:30:00,
2013-03-04 21:35:00,24.6,16.9,29.91,East,88,3.0,11.0,72,0.00,,---,0.00,VWS V14.01,2013-03-05 03:35:00,
2013-03-04 21:40:00,24.6,17.2,29.91,ESE,120,3.0,11.0,73,0.00,,---,0.00,VWS V14.01,2013-03-05 03:40:00,
2013-03-04 21:45:00,24.5,17.1,29.92,East,84,3.0,11.0,73,0.00,,---,0.00,VWS V14.01,2013-03-05 03:45:00,
2013-03-04 21:50:00,24.5,17.1,29.91,NE,53,6.0,11.0,73,0.00,,---,0.00,VWS V14.01,2013-03-05 03:50:00,
2013-03-04 21:55:00,24.4,17.3,29.91,NE,48,7.0,12.0,74,0.00,,---,0.00,VWS V14.01,2013-03-05 03:55:00,
2013-03-04 22:00:00,24.4,17.3,29.92,NE,56,8.0,12.0,74,0.00,,---,0.00,VWS V14.01,2013-03-05 04:00:00,
2013-03-04 22:05:00,24.3,17.2,29.91,ENE,78,7.0,14.0,74,0.00,,---,0.00,VWS V14.01,2013-03-05 04:05:00,
2013-03-04 22:10:00,24.3,17.2,29.92,ENE,70,7.0,14.0,74,0.00,,---,0.00,VWS V14.01,2013-03-05 04:10:00,
2013-03-04 22:15:00,24.3,17.5,29.91,ENE,71,4.0,14.0,75,0.00,,---,0.00,VWS V14.01,2013-03-05 04:15:00,
2013-03-04 22:20:00,24.2,17.4,29.92,ENE,71,6.0,15.0,75,0.00,,---,0.00,VWS V14.01,2013-03-05 04:20:00,
2013-03-04 22:25:00,24.2,17.7,29.92,ENE,57,7.0,15.0,76,0.00,,---,0.00,VWS V14.01,2013-03-05 04:25:00,
2013-03-04 22:30:00,24.2,17.7,29.92,NE,48,5.0,15.0,76,0.00,,---,0.00,VWS V14.01,2013-03-05 04:30:00,
2013-03-04 22:35:00,24.2,18.0,29.93,East,81,3.0,12.0,77,0.00,,---,0.00,VWS V14.01,2013-03-05 04:35:00,
2013-03-04 22:40:00,24.2,18.0,29.93,ENE,69,5.0,12.0,77,0.00,,---,0.00,VWS V14.01,2013-03-05 04:40:00,
2013-03-04 22:45:00,24.2,18.0,29.93,ENE,71,5.0,12.0,77,0.00,,---,0.00,VWS V14.01,2013-03-05 04:45:00,
2013-03-04 22:50:00,24.1,18.0,29.93,ENE,63,0.0,12.0,77,0.00,,---,0.00,VWS V14.01,2013-03-05 04:50:00,
2013-03-04 22:55:00,24.1,18.2,29.93,ENE,59,6.0,12.0,78,0.00,,---,0.00,VWS V14.01,2013-03-05 04:55:00,
2013-03-04 23:00:00,24.0,18.5,29.93,ENE,74,3.0,12.0,79,0.00,,---,0.00,VWS V14.01,2013-03-05 05:00:00,
2013-03-04 23:01:00,24.0,18.5,29.93,ENE,77,2.0,7.0,79,0.00,,---,0.00,VWS V14.01,2013-03-05 05:01:00,
2013-03-04 23:06:00,23.9,18.6,29.93,ENE,74,4.0,10.0,80,0.00,,---,0.00,VWS V14.01,2013-03-05 05:06:00,
2013-03-04 23:11:00,23.9,18.6,29.93,ENE,58,6.0,10.0,80,0.00,,---,0.00,VWS V14.01,2013-03-05 05:11:00,
2013-03-04 23:16:00,23.8,18.5,29.93,ENE,64,12.0,13.0,80,0.00,,---,0.00,VWS V14.01,2013-03-05 05:16:00,
2013-03-04 23:21:00,23.8,18.5,29.93,ENE,67,4.0,13.0,80,0.00,,---,0.00,VWS V14.01,2013-03-05 05:21:00,
2013-03-04 23:26:00,23.8,18.5,29.93,NE,49,0.0,13.0,80,0.00,,---,0.00,VWS V14.01,2013-03-05 05:26:00,
2013-03-04 23:31:00,23.8,18.5,29.93,ENE,71,5.0,6.0,80,0.00,,---,0.00,VWS V14.01,2013-03-05 05:31:00,
2013-03-04 23:36:00,23.8,18.5,29.93,ENE,57,4.0,8.0,80,0.00,,---,0.00,VWS V14.01,2013-03-05 05:36:00,
2013-03-04 23:41:00,23.8,18.5,29.93,ENE,77,4.0,9.0,80,0.00,,---,0.00,VWS V14.01,2013-03-05 05:41:00,
2013-03-04 23:46:00,23.8,18.2,29.93,NE,55,10.0,13.0,79,0.00,,---,0.00,VWS V14.01,2013-03-05 05:46:00,
2013-03-04 23:51:00,23.8,18.2,29.93,ENE,64,6.0,13.0,79,0.00,,---,0.00,VWS V14.01,2013-03-05 05:51:00,
2013-03-04 23:56:00,23.7,18.1,29.93,ENE,63,6.0,13.0,79,0.00,,---,0.00,VWS V14.01,2013-03-05 05:56:00,